Tracking 19564 objects as of 19-Mar-2019
HD Live streaming from Space Station
objects crossing your sky now

AL FARABI 2

Track AL FARABI 2 now!
10-day predictions


NORAD ID: 43805
Int'l Code: 2018-099AZ
Perigee: 579.2 km
Apogee: 598.3 km
Inclination: 97.8 °
Period: 96.3 minutes
Semi major axis: 6959 km
RCS: Unknown
Launch date: December 3, 2018
Source: (TBD)
Launch site: AIR FORCE WESTERN TEST RANGE (AFWTR)
aabbcc
Your satellite tracking list
Your tracking list is empty




NASA's NSSDC Master Catalog

Two Line Element Set (TLE):
1 43805U 18099AZ  19077.88684010  .00000777  00000-0  75861-4 0  9998
2 43805  97.7508 150.9386 0013749 275.6286  84.3366 14.95236226 15714
Source of the keplerian elements: AFSPC